Showing default

KAZSTSAT, 43783

Orbit data source: Space-Track

KAZSTSAT, 43783 is a payload satellite owned by Ghalam LLP (KZ) in SSO that was launched on Mon, 03 Dec 2018 UTC via an FALCON 9 launch vehicle from the Air Force Western Test Range (AFWTR). Payloads include a variety of satellites, spacecraft, and rockets equipped with specific instruments for various scientific and technological missions. These include communications satellites like Starlink; space stations such as the ISS; scientific satellites like the Hubble; Earth observation satellites from companies like Planet Labs, Umbra, and HawkEye 360; GPS; miniature CubeSats for education and research; and military/defense satellites.

Loading next visibility...
KAZSTSAT details
Identifier
43783, 2018-099AB
Orbit
SSO
Last TLE update10 hours ago
Origin
Flag of KZGhalam LLP (KZ / KAZ)
ManufacturerSSTL (Astrium)
MissionOperational Commercial Science
Bus & MotorSSTL-X50, AOCS
Mass110 kg wet, ~100 kg dry
Launch date (UTC)
2018-12-03 (6 years ago)
Launch vehicle
FALCON 9
Launch site
Air Force Western Test Range (AFWTR)
Object type
Payload
Rocket body
Debris
Shape & HBRBox, 0.5 m
Radar Cross Section0.375 m², Medium (>0.1 m² and < 1m²)

Expand to show TLE details & history

TLE from 10 hours ago
0 KAZSTSAT
1 43783U 18099AB  24336.88526626  .00004482  00000-0  38706-3 0  9998
2 43783  97.5053  21.4915 0008802 128.1364 232.0653 14.97693210327073
Epoch: 2024-12-01T21:14Z
Definitive object data (Epoch: 2024-12-01T21:14:47.004Z)
Latitude-0.00008°
Longitude-8.4214°
Altitude580.849 km
Speed7.568 km/s
True Right ascension01h 25m 57s
True Declination0° 00' 00"
Sunlit
Object was in full shadow at TLE epoch
Visualization TLE readout
Latitude71.95983°
Longitude-31.74527°
Altitude582.762 km
Speed7.578 km/s
Apparent Right ascension18h 40m 00s
Apparent Declination27° 27' 05"
Sunlit
Object is in full shadow
Visualization observer readout
Local Sidereal Time04:57:39
Azimuth336.155° NNW
Elevation-18.546°
Doppler factor1
Orbital elements
Apogee altitude577.142 km
Perigee altitude564.909 km
Semi-major axis6,949.163 km
Eccentricity0.0008802
Inclination97.5053°
RAAN21.4915°
Arg. of periapsis128.1364°
True anomaly231.9858°
Mean anomaly232.0653°
Eccentric anomaly232.02555°
Mean motion3.74666 °/min
BSTAR0.00038706
Orbital period96.09 mins
Loading maneuver chart data...
Loading historical data...
Loading historical data...
Loading historical data...
Loading historical data...
Loading historical data...
Loading historical data...
Loading historical data...

KAZSTSAT Visibility forecast

Observer location: undefined°, undefined

Span
Click to sort rows by Start time (UTC) header in descending order
Start Az.
Max El. time (UTC)
Max El. Az.
Max El.
End time (UTC)
End Az.
6 mins2024-12-02 15:27:37.908Z37.25° NE2024-12-02 15:30:37.908Z96.395° ESE27.895°2024-12-02 15:33:37.908Z156.344° SSE
4 mins2024-12-03 02:16:37.908Z96.215° ESE2024-12-03 02:18:37.908Z58.388° ENE17.853°2024-12-03 02:20:37.908Z26.67° NE
6 mins2024-12-03 03:50:37.908Z209.006° SW2024-12-03 03:53:37.908Z277.499° WNW26.927°2024-12-03 03:56:37.908Z325.894° NNW
|